Petersburg, AK

12:55 AM AKDT on July 25, 2016 (GMT -0800)
Johnson Petersburg

Weather History for PAPG - October, 2012

Change the Weather History Date:

Saturday, October 13, 2012

  Actual Average Record
Temperature  
Mean Temperature 48 °F -  
Max Temperature 51 °F 46 °F 57 °F (1986)
Min Temperature 44 °F 38 °F 30 °F (1992)
Degree Days  
Heating Degree Days 18    
Moisture  
Dew Point 44 °F    
Average Humidity 83    
Maximum Humidity 93    
Minimum Humidity 62    
Precipitation  
Precipitation 0.00 in - - ()
Sea Level Pressure  
Sea Level Pressure 29.60 in    
Wind  
Wind Speed 5 mph (East)    
Max Wind Speed 17 mph    
Max Gust Speed 17 mph    
Visibility 8 miles    
Events Rain    
Averages and records for this station are not official NWS values.
T = Trace of Precipitation, MM = Missing Value Source: NWS Daily Summary

Daily Weather History Graph

Daily Weather History Graph

Search for Another Location

Airport or City:

Trip Planner

Search our weather history database for the weather conditions in past years. The results will help you decide how hot, cold, wet, or windy it might be!

Date:

Astronomy

Oct. 13, 2012 Rise Set
Actual Time 7:21 AM AKDT 5:52 PM AKDT
Civil Twilight 6:43 AM AKDT 6:31 PM AKDT
Nautical Twilight 5:59 AM AKDT 7:15 PM AKDT
Astronomical Twilight 5:15 AM AKDT 7:59 PM AKDT
Moon 5:04 AM AKDT (10/13) 4:50 PM AKDT (10/13)
Length of Visible Light 11h 47m
Length of Day
10h 31m
Waning Crescent, 4% of the Moon is Illuminated
Oct 13
Waning Crescent
Oct 15
New
Oct 21
First Quarter
Oct 29
Full
Nov 6
Last Quarter

Hourly Weather History & Observations

Time (AKDT) Temp. Windchill Dew Point Humidity Pressure Visibility Wind Dir Wind Speed Gust Speed Precip Events Conditions
6:04 AM 44.6 °F - 42.8 °F 93% 29.58 in 5.0 mi Calm Calm - N/A Rain Light Rain
6:50 AM 44.6 °F 41.4 °F 42.8 °F 93% 29.58 in 5.0 mi NNE 5.8 mph - N/A Rain Light Rain
7:51 AM 44.6 °F 43.1 °F 42.8 °F 93% 29.61 in 10.0 mi NNE 3.5 mph - N/A Rain Light Rain
8:47 AM 44.6 °F 38.8 °F 42.8 °F 93% 29.61 in 7.0 mi NNE 11.5 mph - N/A Rain Light Rain
9:48 AM 48.2 °F - 46.4 °F 93% 29.62 in 5.0 mi WNW 3.5 mph - N/A Rain Light Rain
10:10 AM 48.2 °F - 46.4 °F 93% 29.62 in 10.0 mi ESE 11.5 mph - N/A Rain Light Rain
10:50 AM 48.2 °F - 44.6 °F 87% 29.63 in 10.0 mi ESE 17.3 mph - N/A Rain Light Rain Showers
11:52 AM 48.2 °F - 46.4 °F 93% 29.63 in 10.0 mi SE 11.5 mph - N/A Rain Light Rain
12:52 PM 48.2 °F - 46.4 °F 93% 29.65 in 7.0 mi SSE 5.8 mph - N/A Rain Light Rain
1:36 PM 51.8 °F - 41.0 °F 67% 29.64 in 7.0 mi South 6.9 mph - N/A   Overcast
1:56 PM 51.8 °F - 46.4 °F 82% 29.65 in 4.0 mi Calm Calm - N/A   Overcast
2:16 PM 51.8 °F - 46.4 °F 82% 29.66 in 4.0 mi South 8.1 mph 17.3 mph N/A   Overcast
2:36 PM 51.8 °F - 46.4 °F 82% 29.66 in 4.0 mi ESE 3.5 mph - N/A   Overcast
2:56 PM 50.0 °F - 46.4 °F 87% 29.66 in 7.0 mi East 6.9 mph - N/A   Mostly Cloudy
3:16 PM 48.2 °F - 46.4 °F 93% 29.66 in 7.0 mi SE 4.6 mph - N/A   Mostly Cloudy
3:36 PM 50.0 °F - 46.4 °F 87% 29.66 in - Calm Calm - N/A   Unknown
3:56 PM 50.0 °F - 46.4 °F 87% 29.66 in 5.0 mi North 3.5 mph - N/A   Overcast
4:16 PM 51.8 °F - 44.6 °F 76% 29.67 in 5.0 mi Calm Calm - N/A   Overcast
4:36 PM 50.0 °F - 46.4 °F 87% 29.67 in 5.0 mi Calm Calm - N/A   Overcast
4:56 PM 48.2 °F - 46.4 °F 93% 29.66 in 5.0 mi NNE 3.5 mph - N/A   Overcast
5:36 PM 48.2 °F - 46.4 °F 93% 29.66 in 5.0 mi NW 3.5 mph - N/A   Overcast
5:56 PM 48.2 °F - 46.4 °F 93% 29.65 in 10.0 mi North 5.8 mph - N/A   Overcast
6:16 PM 50.0 °F - 44.6 °F 82% 29.65 in 10.0 mi Calm Calm - N/A   Overcast
6:36 PM 48.2 °F - 46.4 °F 93% 29.65 in 10.0 mi ENE 3.5 mph - N/A   Overcast
6:56 PM 48.2 °F - 46.4 °F 93% 29.63 in 5.0 mi ESE 6.9 mph - N/A   Overcast
7:16 PM 48.2 °F - 44.6 °F 87% 29.63 in 5.0 mi ESE 6.9 mph - N/A   Overcast
8:16 PM 50.0 °F - 44.6 °F 82% 29.60 in 7.0 mi SSE 6.9 mph - N/A   Mostly Cloudy
8:36 PM 48.2 °F - 42.8 °F 82% 29.59 in 7.0 mi Calm Calm - N/A   Mostly Cloudy
9:16 PM 50.0 °F - 42.8 °F 76% 29.56 in 10.0 mi NE 3.5 mph - N/A   Mostly Cloudy
9:36 PM 51.8 °F - 41.0 °F 67% 29.55 in 10.0 mi WNW 4.6 mph - N/A   Mostly Cloudy
9:56 PM 51.8 °F - 42.8 °F 71% 29.54 in 10.0 mi SE 6.9 mph - N/A   Scattered Clouds
10:16 PM 51.8 °F - 41.0 °F 67% 29.52 in 10.0 mi ESE 5.8 mph - N/A   Partly Cloudy
10:36 PM 51.8 °F - 39.2 °F 62% 29.50 in 10.0 mi Calm Calm - N/A   Partly Cloudy
10:56 PM 50.0 °F - 41.0 °F 71% 29.48 in 10.0 mi SSE 3.5 mph - N/A   Scattered Clouds
11:16 PM 51.8 °F - 39.2 °F 62% 29.46 in 10.0 mi ESE 9.2 mph - N/A   Partly Cloudy
11:36 PM 51.8 °F - 39.2 °F 62% 29.42 in 10.0 mi ESE 6.9 mph - N/A   Clear
11:56 PM 50.0 °F - 37.4 °F 62% 29.40 in 10.0 mi ESE 5.8 mph - N/A   Clear